| time (UTC) | temp F | wind direction | speed MPH | gust MPH | rain 1hr in | rain 24hr in | rain mn in | humidity % | barometer mb |
| 20260510205201 | 84 | 214 | 2.0 | 2.0 | 0.00 | 0.00 | 0.00 | 83 | 1007.3 |
| 20260510204657 | 84 | 163 | 2.0 | 2.0 | 0.00 | 0.00 | 0.00 | 82 | 1007.2 |
| 20260510204154 | 85 | 198 | 1.0 | 2.0 | 0.00 | 0.00 | 0.00 | 82 | 1007.5 |
| 20260510203651 | 85 | 197 | 2.0 | 2.0 | 0.00 | 0.00 | 0.00 | 81 | 1007.3 |
| 20260510203149 | 86 | 180 | 2.0 | 2.0 | 0.00 | 0.00 | 0.00 | 80 | 1007.4 |
| 20260510202643 | 85 | 178 | 1.0 | 1.0 | 0.00 | 0.00 | 0.00 | 83 | 1007.3 |
| 20260510202138 | 84 | 233 | 1.0 | 2.0 | 0.00 | 0.00 | 0.00 | 84 | 1007.3 |
| 20260510201636 | 84 | 177 | 2.0 | 2.0 | 0.00 | 0.00 | 0.00 | 84 | 1007.4 |
| 20260510201133 | 85 | 246 | 1.0 | 2.0 | 0.00 | 0.00 | 0.00 | 83 | 1007.5 |
| 20260510200629 | 84 | 201 | 1.0 | 2.0 | 0.00 | 0.00 | 0.00 | 84 | 1007.6 |
| 20260510200127 | 84 | 204 | 2.0 | 3.0 | 0.00 | 0.00 | 0.00 | 83 | 1007.5 |
| 20260510195624 | 84 | 202 | 2.0 | 3.0 | 0.00 | 0.00 | 0.00 | 84 | 1007.7 |
| 20260510195120 | 85 | 284 | 1.0 | 3.0 | 0.00 | 0.00 | 0.00 | 83 | 1007.7 |
| 20260510194620 | 84 | 141 | 5.0 | 6.0 | 0.00 | 0.00 | 0.00 | 85 | 1008.0 |
| 20260510194117 | 85 | 149 | 2.0 | 3.0 | 0.00 | 0.00 | 0.00 | 84 | 1007.7 |
| 20260510193617 | 84 | 246 | 3.0 | 4.0 | 0.00 | 0.00 | 0.00 | 86 | 1008.1 |
| 20260510193113 | 84 | 225 | 3.0 | 6.0 | 0.00 | 0.00 | 0.00 | 86 | 1008.3 |
| 20260510192607 | 84 | 251 | 2.0 | 2.0 | 0.00 | 0.00 | 0.00 | 85 | 1008.1 |
| 20260510192103 | 84 | 209 | 1.0 | 3.0 | 0.00 | 0.00 | 0.00 | 85 | 1008.1 |
| 20260510191600 | 85 | 188 | 1.0 | 2.0 | 0.00 | 0.00 | 0.00 | 84 | 1008.0 |
| 20260510191057 | 86 | 212 | 2.0 | 2.0 | 0.00 | 0.00 | 0.00 | 83 | 1007.9 |
| 20260510190554 | 86 | 219 | 2.0 | 6.0 | 0.00 | 0.00 | 0.00 | 81 | 1007.9 |
| 20260510190051 | 85 | 211 | 3.0 | 3.0 | 0.00 | 0.00 | 0.00 | 83 | 1007.9 |
| 20260510185548 | 84 | 204 | 1.0 | 2.0 | 0.00 | 0.00 | 0.00 | 85 | 1008.1 |
| 20260510185040 | 84 | 287 | 1.0 | 2.0 | 0.00 | 0.00 | 0.00 | 86 | 1008.0 |
| 20260510184537 | 84 | 301 | 2.0 | 4.0 | 0.00 | 0.00 | 0.00 | 86 | 1008.1 |
| 20260510184032 | 84 | 0 | 2.0 | 3.0 | 0.00 | 0.00 | 0.00 | 85 | 1008.2 |
| 20260510183528 | 84 | 206 | 2.0 | 3.0 | 0.00 | 0.00 | 0.00 | 86 | 1008.1 |
| 20260510183023 | 84 | 224 | 1.0 | 1.0 | 0.00 | 0.00 | 0.00 | 85 | 1008.2 |
| 20260510182520 | 84 | 14 | 2.0 | 2.0 | 0.00 | 0.00 | 0.00 | 86 | 1008.1 |
| 20260510182015 | 85 | 239 | 3.0 | 4.0 | 0.00 | 0.00 | 0.00 | 84 | 1008.3 |
| 20260510181513 | 85 | 217 | 4.0 | 8.0 | 0.00 | 0.00 | 0.00 | 84 | 1008.2 |
| 20260510181009 | 85 | 237 | 1.0 | 1.0 | 0.00 | 0.00 | 0.00 | 84 | 1008.1 |
| 20260510180506 | 85 | 196 | 1.0 | 4.0 | 0.00 | 0.00 | 0.00 | 84 | 1008.1 |
| 20260510180004 | 84 | 219 | 1.0 | 2.0 | 0.00 | 0.00 | 0.00 | 84 | 1008.2 |
| 20260510175458 | 84 | 244 | 2.0 | 3.0 | 0.00 | 0.00 | 0.00 | 85 | 1008.2 |
| 20260510174954 | 85 | 282 | 2.0 | 3.0 | 0.00 | 0.00 | 0.00 | 84 | 1008.2 |
| 20260510174453 | 85 | 195 | 1.0 | 2.0 | 0.00 | 0.00 | 0.00 | 85 | 1008.2 |
| 20260510173949 | 84 | 195 | 2.0 | 3.0 | 0.00 | 0.00 | 0.00 | 86 | 1008.4 |
| 20260510173445 | 84 | 191 | 3.0 | 4.0 | 0.00 | 0.00 | 0.00 | 87 | 1008.2 |
| 20260510172942 | 84 | 295 | 4.0 | 9.0 | 0.00 | 0.00 | 0.00 | 86 | 1008.1 |
| 20260510172437 | 84 | 325 | 3.0 | 6.0 | 0.00 | 0.00 | 0.00 | 87 | 1008.1 |
| 20260510171934 | 84 | 326 | 5.0 | 6.0 | 0.00 | 0.00 | 0.00 | 87 | 1008.2 |
| 20260510171431 | 84 | 149 | 3.0 | 3.0 | 0.00 | 0.00 | 0.00 | 87 | 1008.1 |
| 20260510170928 | 84 | 339 | 2.0 | 3.0 | 0.00 | 0.00 | 0.00 | 86 | 1008.4 |
| 20260510170425 | 83 | 306 | 2.0 | 2.0 | 0.00 | 0.00 | 0.00 | 88 | 1008.3 |
| 20260510165920 | 84 | 292 | 3.0 | 6.0 | 0.00 | 0.00 | 0.00 | 87 | 1008.3 |
| 20260510165417 | 84 | 0 | 2.0 | 3.0 | 0.00 | 0.00 | 0.00 | 86 | 1008.1 |
| 20260510164914 | 83 | 346 | 2.0 | 4.0 | 0.00 | 0.00 | 0.00 | 87 | 1008.1 |
| 20260510164411 | 83 | 42 | 1.0 | 3.0 | 0.00 | 0.00 | 0.00 | 87 | 1008.1 |
| 20260510163911 | 83 | 27 | 2.0 | 2.0 | 0.00 | 0.00 | 0.00 | 87 | 1008.0 |
| 20260510163407 | 84 | 13 | 4.0 | 4.0 | 0.00 | 0.00 | 0.00 | 85 | 1008.1 |
| 20260510162901 | 84 | 209 | 2.0 | 2.0 | 0.00 | 0.00 | 0.00 | 84 | 1008.1 |
| 20260510162359 | 84 | 207 | 2.0 | 2.0 | 0.00 | 0.00 | 0.00 | 84 | 1007.8 |
| 20260510161854 | 84 | 340 | 2.0 | 2.0 | 0.00 | 0.00 | 0.00 | 85 | 1008.1 |
| 20260510161350 | 84 | 217 | 1.0 | 2.0 | 0.00 | 0.00 | 0.00 | 83 | 1007.9 |
| 20260510160848 | 84 | 22 | 1.0 | 3.0 | 0.00 | 0.00 | 0.00 | 82 | 1007.9 |
| 20260510160344 | 85 | 198 | 1.0 | 1.0 | 0.00 | 0.00 | 0.00 | 82 | 1007.8 |
| 20260510155838 | 84 | 189 | 2.0 | 2.0 | 0.00 | 0.00 | 0.00 | 84 | 1007.9 |
| 20260510155336 | 83 | 187 | 2.0 | 2.0 | 0.00 | 0.00 | 0.00 | 84 | 1008.0 |
| 20260510154831 | 84 | 208 | 0.0 | 1.0 | 0.00 | 0.00 | 0.00 | 84 | 1007.8 |
| 20260510154327 | 84 | 200 | 1.0 | 1.0 | 0.00 | 0.00 | 0.00 | 84 | 1008.0 |
| 20260510153822 | 84 | 88 | 2.0 | 2.0 | 0.00 | 0.00 | 0.00 | 84 | 1007.7 |
| 20260510153318 | 83 | 293 | 2.0 | 3.0 | 0.00 | 0.00 | 0.00 | 84 | 1007.7 |
| 20260510152815 | 84 | 287 | 2.0 | 3.0 | 0.00 | 0.00 | 0.00 | 83 | 1007.8 |
| 20260510152312 | 83 | 199 | 0.0 | 1.0 | 0.00 | 0.00 | 0.00 | 85 | 1007.7 |
| 20260510151809 | 82 | 193 | 2.0 | 3.0 | 0.00 | 0.00 | 0.00 | 85 | 1007.8 |
| 20260510151307 | 82 | 182 | 1.0 | 2.0 | 0.00 | 0.00 | 0.00 | 86 | 1007.5 |
| 20260510150802 | 83 | 202 | 0.0 | 0.0 | 0.00 | 0.00 | 0.00 | 86 | 1007.6 |
| 20260510150258 | 82 | 215 | 0.0 | 1.0 | 0.00 | 0.00 | 0.00 | 86 | 1007.5 |
| 20260510145754 | 83 | 164 | 1.0 | 2.0 | 0.00 | 0.00 | 0.00 | 86 | 1007.6 |
| 20260510145251 | 83 | 210 | 0.0 | 1.0 | 0.00 | 0.00 | 0.00 | 85 | 1007.3 |
| 20260510144747 | 83 | 198 | 1.0 | 2.0 | 0.00 | 0.00 | 0.00 | 85 | 1007.1 |
| 20260510144243 | 82 | 193 | 1.0 | 1.0 | 0.00 | 0.00 | 0.00 | 86 | 1007.3 |
| 20260510143738 | 82 | 191 | 1.0 | 1.0 | 0.00 | 0.00 | 0.00 | 88 | 1007.2 |
| 20260510143234 | 82 | 201 | 0.0 | 1.0 | 0.00 | 0.00 | 0.00 | 87 | 1007.3 |
| 20260510142731 | 82 | 199 | 1.0 | 2.0 | 0.00 | 0.00 | 0.00 | 88 | 1007.2 |
| 20260510142228 | 80 | 107 | 1.0 | 2.0 | 0.00 | 0.00 | 0.00 | 91 | 1007.0 |
| 20260510141725 | 81 | 182 | 2.0 | 3.0 | 0.00 | 0.00 | 0.00 | 90 | 1007.0 |
| 20260510141223 | 82 | 214 | 0.0 | 1.0 | 0.00 | 0.00 | 0.00 | 90 | 1006.9 |
| 20260510140719 | 80 | 198 | 1.0 | 1.0 | 0.00 | 0.00 | 0.00 | 92 | 1006.9 |
| 20260510140214 | 80 | 195 | 1.0 | 1.0 | 0.00 | 0.00 | 0.00 | 92 | 1006.8 |
| 20260510135709 | 79 | 207 | 0.0 | 0.0 | 0.00 | 0.00 | 0.00 | 93 | 1006.9 |
| 20260510135205 | 79 | 157 | 2.0 | 2.0 | 0.00 | 0.00 | 0.00 | 93 | 1007.1 |
| 20260510134702 | 79 | 190 | 2.0 | 3.0 | 0.00 | 0.00 | 0.00 | 93 | 1006.8 |
| 20260510134200 | 79 | 192 | 1.0 | 1.0 | 0.00 | 0.00 | 0.00 | 92 | 1006.7 |
| 20260510133655 | 80 | 194 | 2.0 | 2.0 | 0.00 | 0.00 | 0.00 | 91 | 1006.9 |
| 20260510133151 | 79 | 212 | 0.0 | 1.0 | 0.00 | 0.00 | 0.00 | 93 | 1007.0 |
| 20260510132647 | 79 | 202 | 1.0 | 1.0 | 0.00 | 0.00 | 0.00 | 95 | 1007.0 |
| 20260510132145 | 78 | 192 | 0.0 | 0.0 | 0.00 | 0.00 | 0.00 | 96 | 1006.6 |
| 20260510131642 | 78 | 204 | 1.0 | 2.0 | 0.00 | 0.00 | 0.00 | 97 | 1006.7 |
| 20260510131139 | 78 | 207 | 0.0 | 0.0 | 0.00 | 0.00 | 0.00 | 98 | 1006.7 |
| 20260510130636 | 77 | 177 | 0.0 | 0.0 | 0.00 | 0.00 | 0.00 | 98 | 1006.5 |
| 20260510130133 | 77 | 165 | 1.0 | 2.0 | 0.00 | 0.00 | 0.00 | 99 | 1006.4 |
| 20260510125629 | 77 | 164 | 1.0 | 2.0 | 0.00 | 0.00 | 0.00 | 99 | 1006.4 |
| 20260510125126 | 77 | 202 | 0.0 | 0.0 | 0.00 | 0.00 | 0.00 | 99 | 1006.6 |
| 20260510124623 | 77 | 202 | 0.0 | 0.0 | 0.00 | 0.00 | 0.00 | 99 | 1006.7 |
| 20260510124120 | 77 | 203 | 0.0 | 0.0 | 0.00 | 0.00 | 0.00 | 99 | 1006.4 |
| 20260510123615 | 76 | 201 | 0.0 | 0.0 | 0.00 | 0.00 | 0.00 | 99 | 1006.5 |
| 20260510123111 | 76 | 208 | 0.0 | 0.0 | 0.00 | 0.00 | 0.00 | 99 | 1006.5 |
| 20260510122607 | 76 | 209 | 0.0 | 0.0 | 0.00 | 0.00 | 0.00 | 99 | 1006.3 |
| 20260510122103 | 76 | 208 | 0.0 | 0.0 | 0.00 | 0.00 | 0.00 | 99 | 1006.5 |
| 20260510121601 | 76 | 198 | 0.0 | 0.0 | 0.00 | 0.00 | 0.00 | 99 | 1006.3 |
| 20260510121057 | 76 | 214 | 0.0 | 0.0 | 0.00 | 0.00 | 0.00 | 99 | 1006.1 |
| 20260510120555 | 76 | 217 | 0.0 | 0.0 | 0.00 | 0.00 | 0.00 | 99 | 1006.3 |
| 20260510120050 | 76 | 240 | 0.0 | 0.0 | 0.00 | 0.00 | 0.00 | 99 | 1006.4 |
| 20260510115547 | 76 | 277 | 0.0 | 0.0 | 0.00 | 0.00 | 0.00 | 99 | 1006.0 |
| 20260510115045 | 75 | 308 | 0.0 | 0.0 | 0.00 | 0.00 | 0.00 | 99 | 1006.3 |
| 20260510114540 | 75 | 318 | 0.0 | 0.0 | 0.00 | 0.00 | 0.00 | 99 | 1005.9 |
| 20260510114036 | 75 | 318 | 0.0 | 0.0 | 0.00 | 0.00 | 0.00 | 99 | 1005.9 |
| 20260510113531 | 75 | 312 | 0.0 | 0.0 | 0.00 | 0.00 | 0.00 | 99 | 1005.9 |
| 20260510113030 | 75 | 302 | 0.0 | 0.0 | 0.00 | 0.00 | 0.00 | 99 | 1005.8 |
| 20260510112526 | 75 | 284 | 0.0 | 0.0 | 0.00 | 0.00 | 0.00 | 99 | 1006.0 |
| 20260510112022 | 75 | 258 | 0.0 | 0.0 | 0.00 | 0.00 | 0.00 | 99 | 1005.9 |
| 20260510111519 | 75 | 241 | 0.0 | 0.0 | 0.00 | 0.00 | 0.00 | 99 | 1005.9 |
| 20260510111015 | 75 | 233 | 0.0 | 0.0 | 0.00 | 0.00 | 0.00 | 99 | 1005.7 |
| 20260510110511 | 76 | 224 | 0.0 | 0.0 | 0.00 | 0.00 | 0.00 | 99 | 1006.0 |
| 20260510110008 | 76 | 216 | 0.0 | 0.0 | 0.00 | 0.00 | 0.00 | 99 | 1005.8 |
| 20260510105503 | 76 | 208 | 0.0 | 0.0 | 0.00 | 0.00 | 0.00 | 99 | 1006.1 |
| 20260510104958 | 76 | 214 | 0.0 | 0.0 | 0.00 | 0.00 | 0.00 | 99 | 1006.0 |
| 20260510104455 | 76 | 217 | 0.0 | 0.0 | 0.00 | 0.00 | 0.00 | 99 | 1005.8 |
| 20260510103951 | 76 | 218 | 0.0 | 0.0 | 0.00 | 0.00 | 0.00 | 99 | 1005.9 |
| 20260510103449 | 76 | 217 | 0.0 | 0.0 | 0.00 | 0.00 | 0.00 | 99 | 1005.7 |
| 20260510102944 | 75 | 216 | 0.0 | 0.0 | 0.00 | 0.00 | 0.00 | 99 | 1005.7 |
| 20260510102440 | 75 | 216 | 0.0 | 0.0 | 0.00 | 0.00 | 0.00 | 99 | 1005.6 |
| 20260510101937 | 75 | 216 | 0.0 | 0.0 | 0.00 | 0.00 | 0.00 | 99 | 1005.7 |
| 20260510101435 | 75 | 186 | 0.0 | 0.0 | 0.00 | 0.00 | 0.00 | 99 | 1005.8 |
| 20260510100933 | 75 | 207 | 0.0 | 0.0 | 0.00 | 0.00 | 0.00 | 99 | 1005.7 |
| 20260510100429 | 75 | 209 | 0.0 | 0.0 | 0.00 | 0.00 | 0.00 | 99 | 1005.9 |
| 20260510095925 | 75 | 206 | 0.0 | 0.0 | 0.00 | 0.00 | 0.00 | 99 | 1005.8 |
| 20260510095421 | 75 | 209 | 0.0 | 0.0 | 0.00 | 0.00 | 0.00 | 99 | 1005.8 |
| 20260510094920 | 75 | 208 | 0.0 | 0.0 | 0.00 | 0.00 | 0.00 | 99 | 1005.7 |
| 20260510094415 | 75 | 213 | 0.0 | 0.0 | 0.00 | 0.00 | 0.00 | 99 | 1006.0 |
| 20260510093911 | 75 | 205 | 0.0 | 0.0 | 0.00 | 0.00 | 0.00 | 99 | 1005.8 |
| 20260510093407 | 75 | 204 | 0.0 | 0.0 | 0.00 | 0.00 | 0.00 | 99 | 1005.7 |
| 20260510092904 | 75 | 208 | 0.0 | 0.0 | 0.00 | 0.00 | 0.00 | 99 | 1005.7 |
| 20260510092401 | 75 | 208 | 0.0 | 0.0 | 0.00 | 0.00 | 0.00 | 99 | 1005.5 |
| 20260510091855 | 75 | 208 | 0.0 | 0.0 | 0.00 | 0.00 | 0.00 | 99 | 1005.6 |
| 20260510091353 | 75 | 208 | 0.0 | 0.0 | 0.00 | 0.00 | 0.00 | 99 | 1005.7 |
| 20260510090849 | 76 | 209 | 0.0 | 0.0 | 0.00 | 0.00 | 0.00 | 99 | 1005.6 |
| 20260510090346 | 76 | 206 | 0.0 | 0.0 | 0.00 | 0.00 | 0.00 | 99 | 1005.4 |
| 20260510085841 | 76 | 210 | 0.0 | 0.0 | 0.00 | 0.00 | 0.00 | 99 | 1005.7 |
| 20260510085336 | 76 | 208 | 0.0 | 0.0 | 0.00 | 0.00 | 0.00 | 99 | 1005.8 |
| 20260510084832 | 76 | 207 | 0.0 | 0.0 | 0.00 | 0.00 | 0.00 | 99 | 1005.7 |
| 20260510084330 | 76 | 212 | 0.0 | 0.0 | 0.00 | 0.00 | 0.00 | 99 | 1005.7 |
| 20260510083826 | 76 | 228 | 1.0 | 1.0 | 0.00 | 0.00 | 0.00 | 99 | 1005.6 |
| 20260510083323 | 76 | 206 | 0.0 | 0.0 | 0.00 | 0.00 | 0.00 | 99 | 1005.6 |
| 20260510082818 | 76 | 221 | 0.0 | 0.0 | 0.00 | 0.00 | 0.00 | 99 | 1005.7 |
| 20260510082316 | 76 | 206 | 0.0 | 0.0 | 0.00 | 0.00 | 0.00 | 99 | 1005.5 |
| 20260510081815 | 76 | 208 | 0.0 | 0.0 | 0.00 | 0.00 | 0.00 | 99 | 1005.8 |
| 20260510081311 | 76 | 201 | 0.0 | 0.0 | 0.00 | 0.00 | 0.00 | 99 | 1005.7 |
| 20260510080807 | 76 | 202 | 0.0 | 0.0 | 0.00 | 0.00 | 0.00 | 99 | 1005.7 |
| 20260510080302 | 76 | 201 | 0.0 | 0.0 | 0.00 | 0.00 | 0.00 | 99 | 1005.7 |
| 20260510075759 | 76 | 201 | 0.0 | 0.0 | 0.00 | 0.00 | 0.00 | 99 | 1005.9 |
| 20260510075256 | 76 | 206 | 0.0 | 0.0 | 0.00 | 0.00 | 0.00 | 99 | 1005.9 |
| 20260510074753 | 76 | 202 | 0.0 | 0.0 | 0.00 | 0.00 | 0.00 | 98 | 1005.7 |
| 20260510074250 | 76 | 203 | 0.0 | 0.0 | 0.00 | 0.00 | 0.00 | 98 | 1005.9 |
| 20260510073746 | 76 | 201 | 0.0 | 0.0 | 0.00 | 0.00 | 0.00 | 98 | 1005.9 |
| 20260510073242 | 76 | 197 | 2.0 | 3.0 | 0.00 | 0.00 | 0.00 | 98 | 1005.8 |
| 20260510072737 | 76 | 199 | 0.0 | 0.0 | 0.00 | 0.00 | 0.00 | 98 | 1006.0 |
| 20260510072235 | 76 | 203 | 0.0 | 0.0 | 0.00 | 0.00 | 0.00 | 97 | 1006.0 |
| 20260510071731 | 76 | 205 | 0.0 | 0.0 | 0.00 | 0.00 | 0.00 | 97 | 1005.9 |
| 20260510071228 | 76 | 176 | 1.0 | 2.0 | 0.00 | 0.00 | 0.00 | 97 | 1005.9 |
| 20260510070726 | 76 | 192 | 1.0 | 1.0 | 0.00 | 0.00 | 0.00 | 97 | 1005.8 |
| 20260510070223 | 76 | 199 | 0.0 | 0.0 | 0.00 | 0.00 | 0.00 | 97 | 1005.9 |
| 20260510065718 | 76 | 202 | 0.0 | 0.0 | 0.00 | 0.00 | 0.00 | 97 | 1006.0 |
| 20260510065215 | 76 | 198 | 0.0 | 1.0 | 0.00 | 0.00 | 0.00 | 97 | 1006.0 |
| 20260510064711 | 76 | 199 | 1.0 | 1.0 | 0.00 | 0.00 | 0.00 | 96 | 1006.0 |
| 20260510064209 | 76 | 202 | 0.0 | 0.0 | 0.00 | 0.00 | 0.00 | 96 | 1006.3 |
| 20260510063705 | 76 | 208 | 0.0 | 0.0 | 0.00 | 0.00 | 0.00 | 96 | 1006.2 |
| 20260510063201 | 76 | 198 | 0.0 | 1.0 | 0.00 | 0.00 | 0.00 | 96 | 1006.2 |
| 20260510062658 | 76 | 203 | 0.0 | 0.0 | 0.00 | 0.00 | 0.00 | 96 | 1006.4 |
| 20260510062154 | 76 | 205 | 0.0 | 1.0 | 0.00 | 0.00 | 0.00 | 96 | 1006.2 |
| 20260510061649 | 76 | 190 | 1.0 | 1.0 | 0.00 | 0.00 | 0.00 | 96 | 1006.4 |
| 20260510061147 | 76 | 208 | 0.0 | 0.0 | 0.00 | 0.00 | 0.00 | 96 | 1006.3 |
| 20260510060643 | 76 | 203 | 0.0 | 0.0 | 0.00 | 0.00 | 0.00 | 95 | 1006.5 |
| 20260510060140 | 76 | 208 | 0.0 | 0.0 | 0.00 | 0.00 | 0.00 | 95 | 1006.2 |
| 20260510055636 | 76 | 213 | 0.0 | 0.0 | 0.00 | 0.00 | 0.00 | 95 | 1006.2 |
| 20260510055134 | 76 | 204 | 0.0 | 0.0 | 0.00 | 0.00 | 0.00 | 95 | 1006.3 |
| 20260510054630 | 76 | 200 | 0.0 | 0.0 | 0.00 | 0.00 | 0.00 | 94 | 1006.2 |
| 20260510054125 | 76 | 205 | 0.0 | 0.0 | 0.00 | 0.00 | 0.00 | 94 | 1006.1 |
| 20260510053625 | 76 | 281 | 2.0 | 2.0 | 0.00 | 0.00 | 0.00 | 94 | 1006.3 |
| 20260510053121 | 76 | 215 | 0.0 | 0.0 | 0.00 | 0.00 | 0.00 | 94 | 1005.9 |
| 20260510052617 | 76 | 189 | 0.0 | 1.0 | 0.00 | 0.00 | 0.00 | 94 | 1005.9 |
| 20260510052114 | 76 | 192 | 0.0 | 0.0 | 0.00 | 0.00 | 0.00 | 94 | 1005.8 |
| 20260510051609 | 76 | 198 | 0.0 | 0.0 | 0.00 | 0.00 | 0.00 | 94 | 1005.7 |
| 20260510051107 | 77 | 189 | 0.0 | 0.0 | 0.00 | 0.00 | 0.00 | 94 | 1005.6 |
| 20260510050604 | 77 | 194 | 0.0 | 0.0 | 0.00 | 0.00 | 0.00 | 93 | 1005.8 |
| 20260510050101 | 77 | 186 | 1.0 | 1.0 | 0.00 | 0.00 | 0.00 | 93 | 1005.5 |
| 20260510045558 | 77 | 206 | 1.0 | 1.0 | 0.00 | 0.00 | 0.00 | 92 | 1005.7 |
| 20260510045054 | 77 | 193 | 2.0 | 3.0 | 0.00 | 0.00 | 0.00 | 92 | 1005.3 |
| 20260510044550 | 77 | 146 | 2.0 | 2.0 | 0.00 | 0.00 | 0.00 | 92 | 1005.2 |
| 20260510044048 | 77 | 174 | 1.0 | 1.0 | 0.00 | 0.00 | 0.00 | 92 | 1005.5 |
| 20260510043543 | 77 | 192 | 1.0 | 1.0 | 0.00 | 0.00 | 0.00 | 91 | 1005.3 |
| 20260510043039 | 77 | 197 | 0.0 | 0.0 | 0.00 | 0.00 | 0.00 | 91 | 1005.5 |
| 20260510042533 | 77 | 186 | 0.0 | 0.0 | 0.00 | 0.00 | 0.00 | 91 | 1005.3 |
| 20260510042028 | 77 | 194 | 2.0 | 2.0 | 0.00 | 0.00 | 0.00 | 91 | 1005.6 |
| 20260510041526 | 77 | 175 | 1.0 | 1.0 | 0.00 | 0.00 | 0.00 | 91 | 1005.5 |
| 20260510041023 | 77 | 200 | 0.0 | 0.0 | 0.00 | 0.00 | 0.00 | 90 | 1005.8 |
| 20260510040520 | 77 | 201 | 0.0 | 1.0 | 0.00 | 0.00 | 0.00 | 90 | 1005.6 |
| 20260510040015 | 77 | 195 | 0.0 | 1.0 | 0.00 | 0.00 | 0.00 | 89 | 1005.6 |
| 20260510035512 | 77 | 193 | 0.0 | 0.0 | 0.00 | 0.00 | 0.00 | 89 | 1005.6 |
| 20260510035011 | 77 | 193 | 1.0 | 2.0 | 0.00 | 0.00 | 0.00 | 88 | 1005.5 |
| 20260510034510 | 77 | 194 | 0.0 | 0.0 | 0.00 | 0.00 | 0.00 | 88 | 1005.4 |
| 20260510034006 | 77 | 164 | 2.0 | 3.0 | 0.00 | 0.00 | 0.00 | 87 | 1005.4 |
| 20260510033502 | 77 | 190 | 0.0 | 1.0 | 0.00 | 0.00 | 0.00 | 87 | 1005.5 |
| 20260510033000 | 77 | 191 | 0.0 | 0.0 | 0.00 | 0.00 | 0.00 | 86 | 1005.4 |
| 20260510032456 | 77 | 189 | 0.0 | 1.0 | 0.00 | 0.00 | 0.00 | 86 | 1005.5 |
| 20260510031951 | 78 | 168 | 1.0 | 3.0 | 0.00 | 0.00 | 0.00 | 85 | 1005.5 |
| 20260510031447 | 78 | 180 | 1.0 | 1.0 | 0.00 | 0.00 | 0.00 | 85 | 1005.1 |
| 20260510030943 | 78 | 194 | 0.0 | 0.0 | 0.00 | 0.00 | 0.00 | 84 | 1005.1 |
| 20260510030438 | 78 | 184 | 1.0 | 2.0 | 0.00 | 0.00 | 0.00 | 84 | 1005.3 |
| 20260510025936 | 78 | 202 | 0.0 | 0.0 | 0.00 | 0.00 | 0.00 | 83 | 1004.9 |
| 20260510025433 | 78 | 190 | 1.0 | 2.0 | 0.00 | 0.00 | 0.00 | 83 | 1004.8 |
| 20260510024930 | 78 | 198 | 0.0 | 1.0 | 0.00 | 0.00 | 0.00 | 83 | 1004.9 |
| 20260510024427 | 78 | 195 | 0.0 | 0.0 | 0.00 | 0.00 | 0.00 | 83 | 1004.6 |
| 20260510023923 | 78 | 166 | 2.0 | 2.0 | 0.00 | 0.00 | 0.00 | 83 | 1004.8 |
| 20260510023419 | 78 | 199 | 0.0 | 0.0 | 0.00 | 0.00 | 0.00 | 82 | 1004.5 |
| 20260510022917 | 78 | 202 | 0.0 | 0.0 | 0.00 | 0.00 | 0.00 | 82 | 1004.5 |
| 20260510022415 | 78 | 180 | 1.0 | 1.0 | 0.00 | 0.00 | 0.00 | 81 | 1004.3 |
| 20260510021914 | 78 | 197 | 0.0 | 1.0 | 0.00 | 0.00 | 0.00 | 80 | 1004.3 |
| 20260510021413 | 79 | 203 | 0.0 | 0.0 | 0.00 | 0.00 | 0.00 | 79 | 1004.3 |
| 20260510020909 | 79 | 78 | 2.0 | 2.0 | 0.00 | 0.00 | 0.00 | 78 | 1004.4 |
| 20260510020404 | 79 | 179 | 1.0 | 2.0 | 0.00 | 0.00 | 0.00 | 77 | 1004.1 |
| 20260510015900 | 79 | 190 | 0.0 | 0.0 | 0.00 | 0.00 | 0.00 | 75 | 1004.0 |
| 20260510015356 | 80 | 185 | 1.0 | 2.0 | 0.00 | 0.00 | 0.00 | 73 | 1004.0 |
| 20260510014851 | 80 | 224 | 1.0 | 2.0 | 0.00 | 0.00 | 0.00 | 72 | 1004.1 |
| 20260510014349 | 80 | 191 | 1.0 | 1.0 | 0.00 | 0.00 | 0.00 | 71 | 1003.9 |
| 20260510013845 | 80 | 181 | 1.0 | 1.0 | 0.00 | 0.00 | 0.00 | 71 | 1003.9 |
| 20260510013340 | 80 | 199 | 0.0 | 1.0 | 0.00 | 0.00 | 0.00 | 71 | 1003.8 |
| 20260510012835 | 80 | 186 | 2.0 | 2.0 | 0.00 | 0.00 | 0.00 | 71 | 1003.7 |
| 20260510012330 | 81 | 92 | 1.0 | 3.0 | 0.00 | 0.00 | 0.00 | 71 | 1003.7 |
| 20260510011825 | 81 | 204 | 1.0 | 1.0 | 0.00 | 0.00 | 0.00 | 70 | 1003.7 |
| 20260510011321 | 81 | 188 | 0.0 | 1.0 | 0.00 | 0.00 | 0.00 | 68 | 1003.9 |
| 20260510010817 | 82 | 196 | 0.0 | 1.0 | 0.00 | 0.00 | 0.00 | 68 | 1003.8 |
| 20260510010315 | 82 | 205 | 0.0 | 1.0 | 0.00 | 0.00 | 0.00 | 68 | 1003.6 |
| 20260510005811 | 82 | 205 | 0.0 | 0.0 | 0.00 | 0.00 | 0.00 | 68 | 1004.0 |
| 20260510005307 | 82 | 215 | 0.0 | 1.0 | 0.00 | 0.00 | 0.00 | 67 | 1004.0 |
| 20260510004805 | 83 | 194 | 1.0 | 1.0 | 0.00 | 0.00 | 0.00 | 66 | 1004.0 |
| 20260510004303 | 83 | 196 | 1.0 | 1.0 | 0.00 | 0.00 | 0.00 | 65 | 1003.9 |
| 20260510003800 | 83 | 191 | 0.0 | 1.0 | 0.00 | 0.00 | 0.00 | 64 | 1003.8 |
| 20260510003257 | 83 | 235 | 1.0 | 2.0 | 0.00 | 0.00 | 0.00 | 64 | 1003.8 |
| 20260510002755 | 83 | 192 | 1.0 | 3.0 | 0.00 | 0.00 | 0.00 | 63 | 1003.8 |
| 20260510002253 | 84 | 184 | 2.0 | 3.0 | 0.00 | 0.00 | 0.00 | 63 | 1003.7 |
| 20260510001749 | 84 | 194 | 1.0 | 1.0 | 0.00 | 0.00 | 0.00 | 64 | 1003.9 |
| 20260510001248 | 84 | 200 | 0.0 | 1.0 | 0.00 | 0.00 | 0.00 | 64 | 1003.5 |
| 20260510000743 | 84 | 125 | 1.0 | 2.0 | 0.00 | 0.00 | 0.00 | 63 | 1003.8 |
| 20260510000241 | 84 | 198 | 1.0 | 1.0 | 0.00 | 0.00 | 0.00 | 64 | 1003.8 |
| 20260509235738 | 84 | 216 | 2.0 | 4.0 | 0.00 | 0.00 | 0.00 | 63 | 1003.9 |
| 20260509235234 | 84 | 147 | 3.0 | 4.0 | 0.00 | 0.00 | 0.00 | 65 | 1003.7 |
| 20260509234730 | 84 | 166 | 2.0 | 3.0 | 0.00 | 0.00 | 0.00 | 64 | 1003.7 |
| 20260509234227 | 84 | 175 | 2.0 | 2.0 | 0.00 | 0.00 | 0.00 | 63 | 1003.8 |
| 20260509233725 | 84 | 194 | 1.0 | 2.0 | 0.00 | 0.00 | 0.00 | 61 | 1003.8 |
| 20260509233223 | 85 | 209 | 1.0 | 2.0 | 0.00 | 0.00 | 0.00 | 62 | 1003.7 |
| 20260509232718 | 85 | 189 | 2.0 | 3.0 | 0.00 | 0.00 | 0.00 | 61 | 1003.6 |
| 20260509232216 | 86 | 174 | 1.0 | 1.0 | 0.00 | 0.00 | 0.00 | 62 | 1003.9 |
| 20260509231712 | 86 | 205 | 2.0 | 3.0 | 0.00 | 0.00 | 0.00 | 62 | 1003.9 |
| 20260509231209 | 85 | 193 | 2.0 | 3.0 | 0.00 | 0.00 | 0.00 | 60 | 1003.9 |
| 20260509230707 | 85 | 200 | 1.0 | 2.0 | 0.00 | 0.00 | 0.00 | 61 | 1004.0 |
| 20260509230203 | 85 | 203 | 2.0 | 3.0 | 0.00 | 0.00 | 0.00 | 60 | 1003.8 |
| 20260509225659 | 86 | 297 | 4.0 | 6.0 | 0.00 | 0.00 | 0.00 | 61 | 1004.0 |
| 20260509225155 | 86 | 201 | 4.0 | 7.0 | 0.00 | 0.00 | 0.00 | 59 | 1004.0 |
| 20260509224651 | 87 | 200 | 2.0 | 2.0 | 0.00 | 0.00 | 0.00 | 59 | 1004.0 |
| 20260509224148 | 87 | 188 | 1.0 | 2.0 | 0.00 | 0.00 | 0.00 | 60 | 1004.0 |
| 20260509223644 | 87 | 262 | 1.0 | 2.0 | 0.00 | 0.00 | 0.00 | 61 | 1003.8 |
| 20260509223142 | 87 | 192 | 2.0 | 2.0 | 0.00 | 0.00 | 0.00 | 60 | 1004.0 |
| 20260509222639 | 87 | 192 | 1.0 | 2.0 | 0.00 | 0.00 | 0.00 | 61 | 1003.7 |
| 20260509222134 | 88 | 207 | 1.0 | 2.0 | 0.00 | 0.00 | 0.00 | 61 | 1003.9 |
| 20260509221630 | 87 | 199 | 0.0 | 1.0 | 0.00 | 0.00 | 0.00 | 62 | 1003.8 |
| 20260509221126 | 88 | 189 | 3.0 | 4.0 | 0.00 | 0.00 | 0.00 | 60 | 1003.9 |
| 20260509220622 | 89 | 189 | 2.0 | 2.0 | 0.00 | 0.00 | 0.00 | 58 | 1003.8 |
| 20260509220119 | 88 | 260 | 2.0 | 3.0 | 0.00 | 0.00 | 0.00 | 58 | 1003.9 |
| 20260509215614 | 88 | 182 | 1.0 | 2.0 | 0.00 | 0.00 | 0.00 | 59 | 1003.8 |
| 20260509215106 | 89 | 20 | 3.0 | 7.0 | 0.00 | 0.00 | 0.00 | 57 | 1003.6 |
| 20260509214603 | 90 | 208 | 0.0 | 1.0 | 0.00 | 0.00 | 0.00 | 56 | 1003.7 |
| 20260509214100 | 90 | 355 | 2.0 | 2.0 | 0.00 | 0.00 | 0.00 | 56 | 1003.7 |
| 20260509213555 | 90 | 216 | 1.0 | 2.0 | 0.00 | 0.00 | 0.00 | 55 | 1003.6 |
| 20260509213052 | 90 | 208 | 1.0 | 1.0 | 0.00 | 0.00 | 0.00 | 55 | 1004.0 |
| 20260509212550 | 90 | 143 | 2.0 | 4.0 | 0.00 | 0.00 | 0.00 | 53 | 1003.9 |
| 20260509212046 | 90 | 307 | 2.0 | 4.0 | 0.00 | 0.00 | 0.00 | 55 | 1003.9 |
| 20260509211542 | 90 | 95 | 1.0 | 1.0 | 0.00 | 0.00 | 0.00 | 56 | 1004.0 |
| 20260509211039 | 89 | 188 | 1.0 | 2.0 | 0.00 | 0.00 | 0.00 | 58 | 1003.7 |
| 20260509210535 | 90 | 273 | 1.0 | 2.0 | 0.00 | 0.00 | 0.00 | 56 | 1003.8 |
| 20260509210031 | 89 | 250 | 2.0 | 3.0 | 0.00 | 0.00 | 0.00 | 56 | 1003.8 |
| 20260509205526 | 90 | 215 | 1.0 | 1.0 | 0.00 | 0.00 | 0.00 | 57 | 1004.1 |